Hourly Weather Roundup
Issued by NWS Central Illinois

Home | Current Version | Previous Version | Text Only | Print | Product List | Glossary On
Versions: 1 2 3 4 5 6 7 8 9 10 11 12 13 14 15 16 17 18 19 20 21 22 23 24 25 26 27 28 29 30 31 32 33 34 35 36 37 38 39 40 41 42 43 44 45 46 47 48 49 50
738
NZUS43 KILX 261110
HWRILX

AREA WEATHER ROUNDUP
NATIONAL WEATHER SERVICE, LINCOLN IL
600 AM CDT THU MAY 26 2016


CITY           SKY/WX    TMP DP  RH WIND       PRES   REMARKS
BLOOMINGTON    PTCLDY    68  68 100 S9        29.95R
CHAMPAIGN      CLOUDY    67  65  93 S10       29.96S FOG
DANVILLE       CLOUDY    68  65  91 S9        29.96R
DECATUR        MOCLDY    68  65  90 S9        29.94F
EFFINGHAM      MOCLDY    66  66 100 SE3       30.00R
FLORA          CLEAR     68  64  86 SW9       29.99S
GALESBURG      TSTM      65  62  89 S9        29.94S
JACKSONVILLE   CLOUDY    70  66  88 S7        29.91R
LACON          CLOUDY    68  65  88 S3        29.92R
LAWRENCEVILLE  MOCLDY    67  64  90 S9        30.02R
LITCHFIELD     MOCLDY    67  64  91 SE9       29.94S
$$


CITY           SKY/WX    TMP DP  RH WIND       PRES   REMARKS
LINCOLN        CLOUDY    70  68  93 S3        29.92S
MACOMB         TSTM      64  64  98 S5        29.94S
MATTOON        MOCLDY    67  64  90 S8        29.97R
MT CARMEL AP   PTCLDY    66  63  87 S3        30.01S
OLNEY-NOBLE AP CLEAR     64  63  94 SE6       30.00R
PARIS          CLOUDY    68  66  93 S6        30.00S
PEORIA         CLOUDY    69  65  86 W8        29.94R
PONTIAC        CLOUDY    69  67  93 S8        29.94R
RANTOUL        CLOUDY    69  67  94 S10       29.96S FOG
ROBINSON       MOCLDY    65  64  96 S5        30.02R
SPRINGFIELD    CLOUDY    71  67  87 S9        29.91F
TAYLORVILLE    PTCLDY    68  67  94 S12       29.93F
$$

...REGIONAL REPORTS...


CITY           SKY/WX    TMP DP  RH WIND       PRES   REMARKS
CHICAGO O`HARE MOCLDY    68  66  93 SW10      29.91R
KANKAKEE       PTCLDY   N/A N/A N/A S10       29.95R
MOLINE         CLOUDY    71  65  81 S8        29.90R
MOUNT STERLING TSTM      65  63  93 N10       29.95R
MOUNT VERNON   CLEAR     66  61  82 S6        29.99S
PITTSFIELD     TSTM      72  68  88 W8G31     29.96R
QUINCY         LGT RAIN  66  63  90 E14       29.92F
ROCKFORD       CLOUDY    68  64  87 SW6       29.92R
$$


CITY           SKY/WX    TMP DP  RH WIND       PRES   REMARKS
BURLINGTON     CLOUDY    66  64  94 SW16      29.89R
CEDAR RAPIDS   LGT RAIN  61  59  93 N10       29.90R
DES MOINES     CLOUDY    62  58  86 S7        29.88R
KIRKSVILLE     CLOUDY    69  65  86 W6        29.90R
OTTUMWA        CLOUDY    64  60  87 N5        29.90F
ST LOUIS       CLOUDY    72  67  84 S7        29.92S
$$


CITY           SKY/WX    TMP DP  RH WIND       PRES   REMARKS
TERRE HAUTE    CLOUDY    68  64  87 S7        30.01R
EVANSVILLE     CLEAR     64  62  93 SE3       30.03F
INDIANAPOLIS   CLOUDY    68  64  87 S8        30.00F
LAFAYETTE      MOCLDY    67  64  90 S7        29.98R
MADISON        CLOUDY    65  63  93 S3        29.87R
MILWAUKEE      CLOUDY    64  61  90 S8        29.88R FOG
$$






USA.gov is the U.S. government's official web portal to all federal, state and local government web resources and services.